Location: Hurstbourne Priors
(51.2000°N, 1.3667°W)
Time: 22:32:36
(UTC+00:00)

Transit 4A - Pass Details

Date: 21 April 2021
Orbit: 871 x 974 km, 66.8° (Epoch: 16 May)

Event Time Altitude Azimuth Distance (km) Brightness Sun altitude
Rises 21:41:08 0° 161° (SSE) 3,623 - -19.4°
Reaches altitude 10° 21:44:39 10° 141° (SE) 2,665 - -19.8°
Maximum altitude 21:48:22 17° 104° (ESE) 2,202 - -20.1°
Exits shadow 21:49:44 16° 89° (E) 2,264 9.6 -20.2°
Drops below altitude 10° 21:52:02 10° 67° (ENE) 2,634 10.1 -20.4°
Sets 21:55:27 0° 48° (NE) 3,561 11.1 -20.7°
